Lid_Strength_Index
5 5 5 7 9 6 9 9 12 15 11 8 7 7 7 5 4 4 4 3 3 3 2 2 2 2 1 2 2 1 1 1
6 5 5 6 6 9 9 13 14 13 14 15 10 8 8 6 5 4 4 3 3 3 2 2 2 1 1 1 2 1 1 1
6 7 7 7 8 7 8 10 13 14 14 8 9 7 6 5 5 4 4 4 3 3 2 2 2 1 1 2 2 1 1 1
8 6 5 6 7 7 10 11 10 10 11 6 6 6 4 5 4 4 4 4 3 3 2 2 2 2 2 2 2 1 1 1
9 7 6 7 6 6 7 7 10 13 15 6 5 5 4 5 5 4 4 3 3 3 3 2 2 2 2 2 2 1 1 1
10 8 7 8 7 7 7 9 9 9 10 7 7 6 5 5 5 4 4 4 3 3 3 3 3 3 2 2 1 1 1 1
7 7 7 7 7 7 8 7 9 8 9 8 6 6 5 5 5 5 5 4 4 4 4 3 3 3 2 2 2 1 1 2
8 7 7 8 7 7 7 7 7 7 7 6 5 4 5 5 5 5 5 4 4 4 3 3 3 3 2 2 2 1 2 2
10 7 7 9 7 7 7 6 7 8 6 5 5 4 4 4 5 5 5 4 4 4 3 3 3 2 3 2 1 2 2 2
9 8 12 7 5 6 6 6 5 5 5 5 5 4 3 3 3 4 4 4 3 3 3 3 2 2 2 2 2 2 2 2
10 10 8 7 6 6 7 7 5 5 5 4 4 4 3 3 3 3 3 3 3 2 2 2 2 2 2 2 2 2 2 2
8 10 12 10 7 4 5 8 5 4 5 5 4 7 6 3 3 3 2 2 3 2 2 2 2 2 2 2 2 2 2 2
10 11 9 7 6 6 9 10 5 5 5 5 6 5 4 3 3 2 2 2 2 2 3 2 2 2 3 2 3 2 1 1
12 11 13 6 7 11 9 7 5 5 4 5 4 4 3 3 3 3 2 3 2 3 3 3 2 2 3 3 2 1 1 1
10 11 7 6 6 5 6 7 7 4 4 4 4 4 4 3 3 3 3 3 2 3 3 3 2 2 3 2 2 1 2 2
10 8 8 6 4 4 5 5 5 3 3 3 4 4 3 3 3 3 2 3 3 3 3 3 2 2 2 2 1 2 2 2
10 7 7 7 5 4 4 3 3 3 3 3 3 3 3 3 3 3 2 3 3 3 3 3 3 2 2 2 1 2 2 2
12 6 8 6 5 5 5 4 3 3 3 3 3 3 3 3 2 2 2 3 3 3 3 3 3 3 2 1 2 2 3 2
5 4 4 3 3 3 3 3 3 3 3 3 3 3 3 3 4 4 4 3 3 3 3 3 3 3 2 1 2 3 3 3